This is the latest recevied weather packets stored in our database for station/object DL5ARK. If no packets are shown the sender has not sent any weather packets the latest 10 day(s).
| Time | Temp. | Humidity | Pressure | Rain* | Wind** | Luminosity | Snow |
|---|---|---|---|---|---|---|---|
| 1777095591 | 4.44° C | 72% | 1005 hPa | 0 mm | - | - | - |
| 1777095408 | 4.44° C | 73% | 1005 hPa | 0 mm | - | - | - |
| 1777094868 | 3.89° C | 73% | 1005.2 hPa | 0 mm | - | - | - |
| 1777094687 | 3.89° C | 74% | 1005 hPa | 0 mm | - | - | - |
| 1777094507 | 3.33° C | 74% | 1005 hPa | 0 mm | - | - | - |
| 1777094327 | 3.33° C | 74% | 1005.2 hPa | 0 mm | - | - | - |
| 1777094147 | 2.78° C | 75% | 1005 hPa | 0 mm | - | - | - |
| 1777093971 | 2.78° C | 75% | 1005 hPa | 0 mm | - | - | - |
| 1777093788 | 2.78° C | 76% | 1005 hPa | 0 mm | - | - | - |
| 1777093607 | 2.22° C | 77% | 1005 hPa | 0 mm | - | - | - |
| 1777093428 | 1.67° C | 77% | 1005 hPa | 0 mm | - | - | - |
| 1777093247 | 2.22° C | 78% | 1005.2 hPa | 0 mm | - | - | - |
| 1777093067 | 1.67° C | 78% | 1004.7 hPa | 0 mm | - | - | - |
| 1777092888 | 1.67° C | 79% | 1005 hPa | 0 mm | - | - | - |
| 1777092711 | 1.11° C | 79% | 1005 hPa | 0 mm | - | - | - |
| 1777092528 | 0.56° C | 80% | 1004.7 hPa | 0 mm | - | - | - |
| 1777092347 | 0.56° C | 80% | 1005 hPa | 0 mm | - | - | - |
| 1777092167 | 0° C | 81% | 1004.7 hPa | 0 mm | - | - | - |
| 1777091987 | 0° C | 81% | 1004.7 hPa | 0 mm | - | - | - |
| 1777091807 | 0° C | 80% | 1004.7 hPa | 0 mm | - | - | - |
| 1777091627 | -0.56° C | 79% | 1004.7 hPa | 0 mm | - | - | - |
| 1777091450 | -1.11° C | 78% | 1004.7 hPa | 0 mm | - | - | - |
| 1777091267 | -1.11° C | 78% | 1004.7 hPa | 0 mm | - | - | - |
| 1777091087 | -1.11° C | 78% | 1004.7 hPa | 0 mm | - | - | - |
| 1777090908 | -1.11° C | 77% | 1004.7 hPa | 0 mm | - | - | - |
* Rain latest hour (hover to see other rain measurements)
** Current wind speed in m/s (hover to see current wind gust speed)